Time,TemperatureF,DewpointF,PressureIn,WindDirection,WindDirectionDegrees,WindSpeedMPH,WindSpeedGustMPH,Humidity,HourlyPrecipIn,Conditions,Clouds,dailyrainin,SoftwareType,DateUTC
2013-01-06 00:01:00,23.5,21.3,28.29,SSW,202,0.0,0.0,91,0.00,,---,0.00,VWS V14.01,2013-01-06 08:01:00,
2013-01-06 00:06:00,23.5,21.3,28.29,SSW,202,0.0,0.0,91,0.00,,---,0.00,VWS V14.01,2013-01-06 08:06:00,
2013-01-06 00:11:00,23.5,21.6,28.29,SSW,202,0.0,0.0,92,0.00,,---,0.00,VWS V14.01,2013-01-06 08:11:00,
2013-01-06 00:16:00,23.5,21.6,28.29,SSW,202,0.0,0.0,92,0.00,,---,0.00,VWS V14.01,2013-01-06 08:16:00,
2013-01-06 00:21:00,23.7,21.7,28.29,SSW,202,0.0,0.0,92,0.00,,---,0.00,VWS V14.01,2013-01-06 08:21:00,
2013-01-06 00:26:00,23.7,21.7,28.29,SSW,202,0.0,0.0,92,0.00,,---,0.00,VWS V14.01,2013-01-06 08:26:00,
2013-01-06 00:31:00,23.9,21.9,28.32,SSW,202,0.0,0.0,92,0.00,,---,0.00,VWS V14.01,2013-01-06 08:31:00,
2013-01-06 00:36:00,23.7,21.7,28.32,SSW,202,0.0,0.0,92,0.00,,---,0.00,VWS V14.01,2013-01-06 08:36:00,
2013-01-06 00:41:00,23.5,21.3,28.32,SSW,202,0.0,0.0,91,0.00,,---,0.00,VWS V14.01,2013-01-06 08:41:00,
2013-01-06 00:46:00,23.4,21.1,28.29,SSW,202,0.0,0.0,91,0.00,,---,0.00,VWS V14.01,2013-01-06 08:46:00,
2013-01-06 00:51:00,23.2,21.0,28.29,SSW,202,0.0,0.0,91,0.00,,---,0.00,VWS V14.01,2013-01-06 08:51:00,
2013-01-06 00:56:00,23.4,21.1,28.29,SSW,202,0.0,0.0,91,0.00,,---,0.00,VWS V14.01,2013-01-06 08:56:00,
2013-01-06 01:01:00,23.5,21.3,28.29,SSW,202,0.0,0.0,91,0.00,,---,0.00,VWS V14.01,2013-01-06 09:01:00,
2013-01-06 01:06:00,23.4,21.1,28.29,SSW,202,0.0,0.0,91,0.00,,---,0.00,VWS V14.01,2013-01-06 09:06:00,
2013-01-06 01:11:00,23.4,21.1,28.29,SSW,202,0.0,0.0,91,0.00,,---,0.00,VWS V14.01,2013-01-06 09:11:00,
2013-01-06 01:16:00,23.4,21.1,28.29,SSW,202,0.0,0.0,91,0.00,,---,0.00,VWS V14.01,2013-01-06 09:16:00,
2013-01-06 01:21:00,23.4,21.1,28.29,SSW,202,0.0,0.0,91,0.00,,---,0.00,VWS V14.01,2013-01-06 09:21:00,
2013-01-06 01:26:00,23.4,21.1,28.29,SSW,202,0.0,0.0,91,0.00,,---,0.00,VWS V14.01,2013-01-06 09:26:00,
2013-01-06 01:31:00,23.4,21.1,28.29,SSW,202,0.0,0.0,91,0.00,,---,0.00,VWS V14.01,2013-01-06 09:31:00,
2013-01-06 01:36:00,23.5,21.6,28.29,SSW,202,0.0,0.0,92,0.00,,---,0.00,VWS V14.01,2013-01-06 09:36:00,
2013-01-06 01:41:00,23.5,21.6,28.29,SSW,202,0.0,0.0,92,0.00,,---,0.00,VWS V14.01,2013-01-06 09:41:00,
2013-01-06 01:46:00,23.4,21.4,28.29,SSW,202,0.0,0.0,92,0.00,,---,0.00,VWS V14.01,2013-01-06 09:46:00,
2013-01-06 01:51:00,23.4,21.1,28.29,SSW,202,0.0,0.0,91,0.00,,---,0.00,VWS V14.01,2013-01-06 09:51:00,
2013-01-06 01:56:00,23.2,21.0,28.29,SSW,202,0.0,0.0,91,0.00,,---,0.00,VWS V14.01,2013-01-06 09:56:00,
2013-01-06 02:01:00,23.2,21.0,28.29,SSW,202,0.0,0.0,91,0.00,,---,0.00,VWS V14.01,2013-01-06 10:01:00,
2013-01-06 02:06:00,23.4,21.1,28.29,SSW,202,0.0,0.0,91,0.00,,---,0.00,VWS V14.01,2013-01-06 10:06:00,
2013-01-06 02:11:00,23.4,21.1,28.29,SSW,202,0.0,0.0,91,0.00,,---,0.00,VWS V14.01,2013-01-06 10:11:00,
2013-01-06 02:16:00,23.4,21.4,28.29,SSW,202,0.0,0.0,92,0.00,,---,0.00,VWS V14.01,2013-01-06 10:16:00,
2013-01-06 02:21:00,23.4,21.4,28.29,SSW,202,0.0,0.0,92,0.00,,---,0.00,VWS V14.01,2013-01-06 10:21:00,
2013-01-06 02:26:00,23.2,21.0,28.29,SSW,202,0.0,0.0,91,0.00,,---,0.00,VWS V14.01,2013-01-06 10:26:00,
2013-01-06 02:31:00,23.2,21.0,28.29,SSW,202,0.0,0.0,91,0.00,,---,0.00,VWS V14.01,2013-01-06 10:31:00,
2013-01-06 02:36:00,23.2,21.0,28.29,SSW,202,0.0,0.0,91,0.00,,---,0.00,VWS V14.01,2013-01-06 10:36:00,
2013-01-06 02:42:00,23.2,21.0,28.29,SSW,202,0.0,0.0,91,0.00,,---,0.00,VWS V14.01,2013-01-06 10:42:00,
2013-01-06 02:47:00,23.2,21.0,28.29,SSW,202,0.0,0.0,91,0.00,,---,0.00,VWS V14.01,2013-01-06 10:47:00,
2013-01-06 02:52:00,23.2,21.0,28.29,SSW,202,0.0,0.0,91,0.00,,---,0.00,VWS V14.01,2013-01-06 10:52:00,
2013-01-06 02:57:00,23.2,21.0,28.29,SSW,202,0.0,0.0,91,0.00,,---,0.00,VWS V14.01,2013-01-06 10:57:00,
2013-01-06 03:02:00,23.2,21.2,28.29,SSW,202,0.0,0.0,92,0.00,,---,0.00,VWS V14.01,2013-01-06 11:02:00,
2013-01-06 03:07:00,23.2,21.2,28.29,SSW,202,0.0,0.0,92,0.00,,---,0.00,VWS V14.01,2013-01-06 11:07:00,
2013-01-06 03:12:00,23.4,21.4,28.29,SSW,202,0.0,0.0,92,0.00,,---,0.00,VWS V14.01,2013-01-06 11:12:00,
2013-01-06 03:17:00,23.4,21.4,28.32,SSW,202,0.0,0.0,92,0.00,,---,0.00,VWS V14.01,2013-01-06 11:17:00,
2013-01-06 03:22:00,23.4,21.4,28.32,SSW,202,0.0,0.0,92,0.00,,---,0.00,VWS V14.01,2013-01-06 11:22:00,
2013-01-06 03:27:00,23.5,21.6,28.32,SSW,202,0.0,0.0,92,0.00,,---,0.00,VWS V14.01,2013-01-06 11:27:00,
2013-01-06 03:32:00,23.5,21.6,28.32,SSW,202,0.0,0.0,92,0.00,,---,0.00,VWS V14.01,2013-01-06 11:32:00,
2013-01-06 03:37:00,23.5,21.6,28.32,SSW,202,0.0,0.0,92,0.00,,---,0.00,VWS V14.01,2013-01-06 11:37:00,
2013-01-06 03:42:00,23.5,21.6,28.32,SSW,202,0.0,0.0,92,0.00,,---,0.00,VWS V14.01,2013-01-06 11:42:00,
2013-01-06 03:47:00,23.5,21.6,28.29,SSW,202,0.0,0.0,92,0.00,,---,0.00,VWS V14.01,2013-01-06 11:47:00,
2013-01-06 03:52:00,23.7,21.7,28.29,SSW,202,0.0,0.0,92,0.00,,---,0.00,VWS V14.01,2013-01-06 11:52:00,
2013-01-06 03:57:00,23.7,21.7,28.29,SSW,202,0.0,0.0,92,0.00,,---,0.00,VWS V14.01,2013-01-06 11:57:00,
2013-01-06 04:02:00,23.7,21.7,28.29,SSW,202,0.0,0.0,92,0.00,,---,0.00,VWS V14.01,2013-01-06 12:02:00,
2013-01-06 04:07:00,23.7,21.7,28.29,SSW,202,0.0,0.0,92,0.00,,---,0.00,VWS V14.01,2013-01-06 12:07:00,
2013-01-06 04:12:00,23.9,21.9,28.29,SSW,202,0.0,0.0,92,0.00,,---,0.00,VWS V14.01,2013-01-06 12:12:00,
2013-01-06 04:17:00,23.9,21.9,28.29,SSW,202,0.0,0.0,92,0.00,,---,0.00,VWS V14.01,2013-01-06 12:17:00,
2013-01-06 04:22:00,23.9,21.9,28.29,SSW,202,0.0,0.0,92,0.00,,---,0.00,VWS V14.01,2013-01-06 12:22:00,
2013-01-06 04:27:00,23.9,21.9,28.29,SSW,202,0.0,0.0,92,0.00,,---,0.00,VWS V14.01,2013-01-06 12:27:00,
2013-01-06 04:32:00,23.9,21.9,28.29,SSW,202,0.0,0.0,92,0.00,,---,0.00,VWS V14.01,2013-01-06 12:32:00,
2013-01-06 04:37:00,24.1,22.4,28.29,SSW,202,0.0,0.0,93,0.00,,---,0.00,VWS V14.01,2013-01-06 12:37:00,
2013-01-06 04:42:00,24.1,22.4,28.29,SSW,202,0.0,0.0,93,0.00,,---,0.00,VWS V14.01,2013-01-06 12:42:00,
2013-01-06 04:47:00,24.1,22.4,28.29,SSW,202,0.0,0.0,93,0.00,,---,0.00,VWS V14.01,2013-01-06 12:47:00,
2013-01-06 04:52:00,24.1,22.4,28.29,SSW,202,0.0,0.0,93,0.00,,---,0.00,VWS V14.01,2013-01-06 12:52:00,
2013-01-06 04:57:00,24.1,22.1,28.29,SSW,202,0.0,0.0,92,0.00,,---,0.00,VWS V14.01,2013-01-06 12:57:00,
2013-01-06 05:03:00,24.1,22.1,28.29,SSW,202,0.0,0.0,92,0.00,,---,0.00,VWS V14.01,2013-01-06 13:03:00,
2013-01-06 05:08:00,24.1,22.1,28.29,SSW,202,0.0,0.0,92,0.00,,---,0.00,VWS V14.01,2013-01-06 13:08:00,
2013-01-06 05:13:00,24.1,22.1,28.29,SSW,202,0.0,0.0,92,0.00,,---,0.00,VWS V14.01,2013-01-06 13:13:00,
2013-01-06 05:18:00,24.1,22.1,28.29,SSW,202,0.0,0.0,92,0.00,,---,0.00,VWS V14.01,2013-01-06 13:18:00,
2013-01-06 05:23:00,24.1,22.1,28.29,SSW,202,0.0,0.0,92,0.00,,---,0.00,VWS V14.01,2013-01-06 13:23:00,
2013-01-06 05:28:00,24.1,22.1,28.29,SSW,202,0.0,0.0,92,0.00,,---,0.00,VWS V14.01,2013-01-06 13:28:00,
2013-01-06 05:33:00,24.1,22.1,28.29,SSW,202,0.0,0.0,92,0.00,,---,0.00,VWS V14.01,2013-01-06 13:33:00,
2013-01-06 05:39:00,24.1,22.1,28.29,SSW,202,0.0,0.0,92,0.00,,---,0.00,VWS V14.01,2013-01-06 13:39:00,
2013-01-06 05:44:00,24.1,22.1,28.29,SSW,202,0.0,0.0,92,0.00,,---,0.00,VWS V14.01,2013-01-06 13:44:00,
2013-01-06 05:49:00,24.1,22.4,28.29,SSW,202,0.0,0.0,93,0.00,,---,0.00,VWS V14.01,2013-01-06 13:49:00,
2013-01-06 05:54:00,24.1,22.1,28.29,SSW,202,0.0,0.0,92,0.00,,---,0.00,VWS V14.01,2013-01-06 13:54:00,
2013-01-06 05:59:00,24.1,22.1,28.29,SSW,202,0.0,0.0,92,0.00,,---,0.00,VWS V14.01,2013-01-06 13:59:00,
2013-01-06 06:04:00,24.1,22.1,28.29,SSW,202,0.0,0.0,92,0.00,,---,0.00,VWS V14.01,2013-01-06 14:04:00,
2013-01-06 06:09:00,24.1,22.1,28.29,SSW,202,0.0,0.0,92,0.00,,---,0.00,VWS V14.01,2013-01-06 14:09:00,
2013-01-06 06:14:00,24.1,22.1,28.29,SSW,202,0.0,0.0,92,0.00,,---,0.00,VWS V14.01,2013-01-06 14:14:00,
2013-01-06 06:19:00,24.3,22.3,28.29,SSW,202,0.0,0.0,92,0.00,,---,0.00,VWS V14.01,2013-01-06 14:19:00,
2013-01-06 06:24:00,24.3,22.3,28.29,SSW,202,0.0,0.0,92,0.00,,---,0.00,VWS V14.01,2013-01-06 14:24:00,
2013-01-06 06:29:00,24.3,22.3,28.29,SSW,202,0.0,0.0,92,0.00,,---,0.00,VWS V14.01,2013-01-06 14:29:00,
2013-01-06 06:34:00,24.1,22.1,28.29,SSW,202,0.0,0.0,92,0.00,,---,0.00,VWS V14.01,2013-01-06 14:34:00,
2013-01-06 06:39:00,24.1,22.1,28.29,SSW,202,0.0,0.0,92,0.00,,---,0.00,VWS V14.01,2013-01-06 14:39:00,
2013-01-06 06:44:00,24.1,22.1,28.29,SSW,202,0.0,0.0,92,0.00,,---,0.00,VWS V14.01,2013-01-06 14:44:00,
2013-01-06 06:49:00,24.1,22.1,28.29,SSW,202,0.0,0.0,92,0.00,,---,0.00,VWS V14.01,2013-01-06 14:49:00,
2013-01-06 06:54:00,24.1,22.1,28.29,SSW,202,0.0,0.0,92,0.00,,---,0.00,VWS V14.01,2013-01-06 14:54:00,
2013-01-06 06:59:00,24.1,22.1,28.32,SSW,202,0.0,0.0,92,0.00,,---,0.00,VWS V14.01,2013-01-06 14:59:00,
2013-01-06 07:04:00,24.1,22.1,28.32,SSW,202,0.0,0.0,92,0.00,,---,0.00,VWS V14.01,2013-01-06 15:04:00,
2013-01-06 07:09:00,24.1,22.1,28.32,SSW,202,0.0,0.0,92,0.00,,---,0.00,VWS V14.01,2013-01-06 15:09:00,
2013-01-06 07:14:00,24.1,22.1,28.29,SSW,202,0.0,0.0,92,0.00,,---,0.00,VWS V14.01,2013-01-06 15:14:00,
2013-01-06 07:19:00,24.1,22.1,28.29,SSW,202,0.0,0.0,92,0.00,,---,0.00,VWS V14.01,2013-01-06 15:19:00,
2013-01-06 07:24:00,24.1,22.1,28.29,SSW,202,0.0,0.0,92,0.00,,---,0.00,VWS V14.01,2013-01-06 15:24:00,
2013-01-06 07:29:00,24.1,22.4,28.29,SSW,202,0.0,0.0,93,0.00,,---,0.00,VWS V14.01,2013-01-06 15:29:00,
2013-01-06 07:34:00,24.1,22.1,28.29,SSW,202,0.0,0.0,92,0.00,,---,0.00,VWS V14.01,2013-01-06 15:34:00,
2013-01-06 07:39:00,24.1,22.1,28.29,SSW,202,0.0,0.0,92,0.00,,---,0.00,VWS V14.01,2013-01-06 15:39:00,
2013-01-06 07:44:00,24.1,22.1,28.29,SSW,202,0.0,0.0,92,0.00,,---,0.00,VWS V14.01,2013-01-06 15:44:00,
2013-01-06 07:49:00,24.1,22.1,28.29,SSW,202,0.0,0.0,92,0.00,,---,0.00,VWS V14.01,2013-01-06 15:49:00,
2013-01-06 07:54:00,24.1,22.4,28.29,SSW,202,0.0,0.0,93,0.00,,---,0.00,VWS V14.01,2013-01-06 15:54:00,
2013-01-06 07:59:00,24.1,22.4,28.29,SSW,202,0.0,0.0,93,0.00,,---,0.00,VWS V14.01,2013-01-06 15:59:00,
2013-01-06 08:04:00,24.3,22.5,28.29,SSW,202,0.0,0.0,93,0.00,,---,0.00,VWS V14.01,2013-01-06 16:04:00,
2013-01-06 08:09:00,24.3,22.5,28.29,SSW,202,0.0,0.0,93,0.00,,---,0.00,VWS V14.01,2013-01-06 16:09:00,
2013-01-06 08:14:00,24.4,22.7,28.32,SSW,202,0.0,0.0,93,0.00,,---,0.00,VWS V14.01,2013-01-06 16:14:00,
2013-01-06 08:19:00,24.4,22.7,28.32,SSW,202,0.0,0.0,93,0.00,,---,0.00,VWS V14.01,2013-01-06 16:19:00,
2013-01-06 08:24:00,24.6,22.9,28.32,SSW,202,0.0,0.0,93,0.00,,---,0.00,VWS V14.01,2013-01-06 16:24:00,
2013-01-06 08:29:00,24.8,23.1,28.32,SSW,202,0.0,0.0,93,0.00,,---,0.00,VWS V14.01,2013-01-06 16:29:00,
2013-01-06 08:34:00,25.0,23.2,28.32,SSW,202,0.0,0.0,93,0.00,,---,0.00,VWS V14.01,2013-01-06 16:34:00,
2013-01-06 08:39:00,25.2,23.4,28.32,SSW,202,0.0,0.0,93,0.00,,---,0.00,VWS V14.01,2013-01-06 16:39:00,
2013-01-06 08:44:00,25.5,23.8,28.32,SSW,202,0.0,0.0,93,0.00,,---,0.00,VWS V14.01,2013-01-06 16:44:00,
2013-01-06 08:49:00,25.3,23.6,28.32,SSW,202,0.0,0.0,93,0.00,,---,0.00,VWS V14.01,2013-01-06 16:49:00,
2013-01-06 08:54:00,25.7,24.0,28.32,SSW,202,0.0,0.0,93,0.00,,---,0.00,VWS V14.01,2013-01-06 16:54:00,
2013-01-06 08:59:00,26.4,24.7,28.32,SSW,202,0.0,0.0,93,0.00,,---,0.00,VWS V14.01,2013-01-06 16:59:00,
2013-01-06 09:04:00,26.2,24.5,28.32,SSW,202,0.0,0.0,93,0.00,,---,0.00,VWS V14.01,2013-01-06 17:04:00,
2013-01-06 09:09:00,26.4,24.7,28.32,SSW,202,0.0,0.0,93,0.00,,---,0.00,VWS V14.01,2013-01-06 17:09:00,
2013-01-06 09:14:00,27.0,25.0,28.32,SSW,202,0.0,0.0,92,0.00,,---,0.00,VWS V14.01,2013-01-06 17:14:00,
2013-01-06 09:19:00,27.0,25.0,28.32,SSW,202,0.0,0.0,92,0.00,,---,0.00,VWS V14.01,2013-01-06 17:19:00,
2013-01-06 09:24:00,27.3,25.3,28.32,SSW,202,0.0,0.0,92,0.00,,---,0.00,VWS V14.01,2013-01-06 17:24:00,
2013-01-06 09:29:00,27.1,24.9,28.32,SSW,202,0.0,0.0,91,0.00,,---,0.00,VWS V14.01,2013-01-06 17:29:00,
2013-01-06 09:34:00,27.3,25.0,28.32,SSW,202,0.0,0.0,91,0.00,,---,0.00,VWS V14.01,2013-01-06 17:34:00,
2013-01-06 09:39:00,28.0,25.8,28.32,SSW,202,0.0,0.0,91,0.00,,---,0.00,VWS V14.01,2013-01-06 17:39:00,
2013-01-06 09:44:00,28.9,26.6,28.35,SSW,202,0.0,0.0,91,0.00,,---,0.00,VWS V14.01,2013-01-06 17:44:00,
2013-01-06 09:49:00,28.9,26.6,28.35,SSW,202,0.0,0.0,91,0.00,,---,0.00,VWS V14.01,2013-01-06 17:49:00,
2013-01-06 09:54:00,28.2,25.7,28.35,SSW,202,0.0,0.0,90,0.00,,---,0.00,VWS V14.01,2013-01-06 17:54:00,
2013-01-06 09:59:00,28.6,25.5,28.35,SSW,202,0.0,0.0,88,0.00,,---,0.00,VWS V14.01,2013-01-06 17:59:00,
2013-01-06 10:04:00,29.3,26.2,28.35,SSW,202,0.0,0.0,88,0.00,,---,0.00,VWS V14.01,2013-01-06 18:04:00,
2013-01-06 10:09:00,29.5,26.4,28.35,SSW,202,0.0,0.0,88,0.00,,---,0.00,VWS V14.01,2013-01-06 18:09:00,
2013-01-06 10:14:00,30.0,26.9,28.35,SSW,202,0.0,0.0,88,0.00,,---,0.00,VWS V14.01,2013-01-06 18:14:00,
2013-01-06 10:20:00,30.4,27.0,28.35,SSW,202,0.0,0.0,87,0.00,,---,0.00,VWS V14.01,2013-01-06 18:20:00,
2013-01-06 10:25:00,30.7,27.1,28.35,SSW,202,0.0,0.0,86,0.00,,---,0.00,VWS V14.01,2013-01-06 18:25:00,
2013-01-06 10:29:00,31.6,27.9,28.32,SSW,202,0.0,0.0,86,0.00,,---,0.00,VWS V14.01,2013-01-06 18:29:00,
2013-01-06 10:34:00,31.1,27.1,28.32,SSW,202,0.0,0.0,85,0.00,,---,0.00,VWS V14.01,2013-01-06 18:34:00,
2013-01-06 10:39:00,31.5,27.2,28.32,SSW,202,0.0,0.0,84,0.00,,---,0.00,VWS V14.01,2013-01-06 18:39:00,
2013-01-06 10:45:00,32.4,28.1,28.32,SSW,202,0.0,0.0,84,0.00,,---,0.00,VWS V14.01,2013-01-06 18:45:00,
2013-01-06 10:50:00,32.2,27.3,28.32,SSW,202,0.0,0.0,82,0.00,,---,0.00,VWS V14.01,2013-01-06 18:50:00,
2013-01-06 10:55:00,32.5,27.4,28.32,SSW,202,0.0,0.0,81,0.00,,---,0.00,VWS V14.01,2013-01-06 18:55:00,
2013-01-06 11:00:00,33.1,28.2,28.32,SSW,202,0.0,0.0,82,0.00,,---,0.00,VWS V14.01,2013-01-06 19:00:00,
2013-01-06 11:05:00,33.1,27.6,28.32,SSW,202,0.0,0.0,80,0.00,,---,0.00,VWS V14.01,2013-01-06 19:05:00,
2013-01-06 11:10:00,33.6,28.1,28.32,SSW,202,0.0,0.0,80,0.00,,---,0.00,VWS V14.01,2013-01-06 19:10:00,
2013-01-06 11:15:00,33.8,28.0,28.32,SSW,202,0.0,0.0,79,0.00,,---,0.00,VWS V14.01,2013-01-06 19:15:00,
2013-01-06 11:20:00,34.0,27.5,28.32,SSW,202,0.0,0.0,77,0.00,,---,0.00,VWS V14.01,2013-01-06 19:20:00,
2013-01-06 11:25:00,34.5,28.1,28.32,SSW,202,0.0,0.0,77,0.00,,---,0.00,VWS V14.01,2013-01-06 19:25:00,
2013-01-06 11:30:00,35.1,28.6,28.32,SSW,202,0.0,0.0,77,0.00,,---,0.00,VWS V14.01,2013-01-06 19:30:00,
2013-01-06 11:35:00,34.9,27.5,28.32,SSW,202,0.0,0.0,74,0.00,,---,0.00,VWS V14.01,2013-01-06 19:35:00,
2013-01-06 11:40:00,34.5,27.4,28.32,SSW,202,0.0,0.0,75,0.00,,---,0.00,VWS V14.01,2013-01-06 19:40:00,
2013-01-06 11:45:00,34.0,26.2,28.32,SSW,202,0.0,0.0,73,0.00,,---,0.00,VWS V14.01,2013-01-06 19:45:00,
2013-01-06 11:50:00,35.1,27.3,28.32,SSW,202,0.0,0.0,73,0.00,,---,0.00,VWS V14.01,2013-01-06 19:50:00,
2013-01-06 11:55:00,35.2,26.8,28.32,SSW,202,0.0,0.0,71,0.00,,---,0.00,VWS V14.01,2013-01-06 19:55:00,
2013-01-06 12:00:00,34.9,25.8,28.29,SSW,202,0.0,0.0,69,0.00,,---,0.00,VWS V14.01,2013-01-06 20:00:00,
2013-01-06 12:05:00,35.6,26.1,28.29,SSW,202,0.0,0.0,68,0.00,,---,0.00,VWS V14.01,2013-01-06 20:05:00,
2013-01-06 12:10:00,35.6,26.5,28.29,SW,225,0.0,0.0,69,0.00,,---,0.00,VWS V14.01,2013-01-06 20:10:00,
2013-01-06 12:11:00,35.4,26.3,28.29,SW,225,0.0,0.0,69,0.00,,---,0.00,VWS V14.01,2013-01-06 20:11:00,
2013-01-06 12:13:00,35.1,25.6,28.29,WNW,292,0.0,0.0,68,0.00,,---,0.00,VWS V14.01,2013-01-06 20:13:00,
2013-01-06 12:18:00,35.1,25.6,28.29,WNW,292,0.0,0.0,68,0.00,,---,0.00,VWS V14.01,2013-01-06 20:18:00,
2013-01-06 12:23:00,35.4,26.6,28.29,WNW,292,0.0,0.0,70,0.00,,---,0.00,VWS V14.01,2013-01-06 20:23:00,
2013-01-06 12:28:00,35.6,26.5,28.26,WNW,292,0.0,0.0,69,0.00,,---,0.00,VWS V14.01,2013-01-06 20:28:00,
2013-01-06 12:34:00,36.5,27.7,28.26,WNW,292,0.0,0.0,70,0.00,,---,0.00,VWS V14.01,2013-01-06 20:34:00,
2013-01-06 12:39:00,36.0,26.4,28.26,NW,315,0.0,0.0,68,0.00,,---,0.00,VWS V14.01,2013-01-06 20:39:00,
2013-01-06 12:44:00,36.9,27.3,28.26,WNW,292,0.0,0.0,68,0.00,,---,0.00,VWS V14.01,2013-01-06 20:44:00,
2013-01-06 12:49:00,36.7,27.1,28.26,NNW,338,0.0,0.0,68,0.00,,---,0.00,VWS V14.01,2013-01-06 20:49:00,
2013-01-06 12:54:00,37.0,26.8,28.26,NNW,338,0.0,0.0,66,0.00,,---,0.00,VWS V14.01,2013-01-06 20:54:00,
2013-01-06 12:59:00,37.2,26.5,28.26,NNW,338,0.0,0.0,65,0.00,,---,0.00,VWS V14.01,2013-01-06 20:59:00,
2013-01-06 13:00:00,37.2,26.5,28.26,NNW,338,0.0,0.0,65,0.00,,---,0.00,VWS V14.01,2013-01-06 21:00:00,
2013-01-06 13:05:00,36.9,26.6,28.26,NNW,338,0.0,0.0,66,0.00,,---,0.00,VWS V14.01,2013-01-06 21:05:00,
2013-01-06 13:10:00,37.6,26.9,28.26,NNW,338,0.0,0.0,65,0.00,,---,0.00,VWS V14.01,2013-01-06 21:10:00,
2013-01-06 13:15:00,36.9,26.2,28.26,NNW,338,0.0,0.0,65,0.00,,---,0.00,VWS V14.01,2013-01-06 21:15:00,
2013-01-06 13:20:00,36.3,25.7,28.26,NNW,338,0.0,0.0,65,0.00,,---,0.00,VWS V14.01,2013-01-06 21:20:00,
2013-01-06 13:25:00,35.4,24.5,28.26,NNW,338,0.0,0.0,64,0.00,,---,0.00,VWS V14.01,2013-01-06 21:25:00,
2013-01-06 13:30:00,35.2,24.7,28.26,NNW,338,0.0,0.0,65,0.00,,---,0.00,VWS V14.01,2013-01-06 21:30:00,
2013-01-06 13:35:00,34.9,24.7,28.26,NNW,338,0.0,0.0,66,0.00,,---,0.00,VWS V14.01,2013-01-06 21:35:00,
2013-01-06 13:40:00,34.3,24.9,28.26,NNW,338,0.0,0.0,68,0.00,,---,0.00,VWS V14.01,2013-01-06 21:40:00,
2013-01-06 13:45:00,33.8,24.4,28.23,NNW,338,0.0,0.0,68,0.00,,---,0.00,VWS V14.01,2013-01-06 21:45:00,
2013-01-06 13:50:00,33.8,24.7,28.23,NNW,338,0.0,0.0,69,0.00,,---,0.00,VWS V14.01,2013-01-06 21:50:00,
2013-01-06 13:55:00,33.8,24.7,28.23,NNW,338,0.0,0.0,69,0.00,,---,0.00,VWS V14.01,2013-01-06 21:55:00,
2013-01-06 14:00:00,33.4,24.4,28.23,NNW,338,0.0,0.0,69,0.00,,---,0.00,VWS V14.01,2013-01-06 22:00:00,
2013-01-06 14:05:00,34.0,25.2,28.23,NNW,338,0.0,0.0,70,0.00,,---,0.00,VWS V14.01,2013-01-06 22:05:00,
2013-01-06 14:10:00,34.0,24.9,28.23,ENE,68,0.0,0.0,69,0.00,,---,0.00,VWS V14.01,2013-01-06 22:10:00,
2013-01-06 14:15:00,34.0,24.9,28.23,ENE,68,0.0,0.0,69,0.00,,---,0.00,VWS V14.01,2013-01-06 22:15:00,
2013-01-06 14:20:00,33.6,24.9,28.23,ESE,112,0.0,0.0,70,0.00,,---,0.00,VWS V14.01,2013-01-06 22:20:00,
2013-01-06 14:26:00,33.8,25.1,28.23,ESE,112,0.0,0.0,70,0.00,,---,0.00,VWS V14.01,2013-01-06 22:26:00,
2013-01-06 14:31:00,33.4,24.7,28.23,ESE,112,0.0,0.0,70,0.00,,---,0.00,VWS V14.01,2013-01-06 22:31:00,
2013-01-06 14:36:00,33.6,24.9,28.23,ESE,112,0.0,0.0,70,0.00,,---,0.00,VWS V14.01,2013-01-06 22:36:00,
2013-01-06 14:41:00,33.3,24.5,28.23,SE,135,0.0,0.0,70,0.00,,---,0.00,VWS V14.01,2013-01-06 22:41:00,
2013-01-06 14:46:00,32.9,24.2,28.23,ESE,112,0.0,0.0,70,0.00,,---,0.00,VWS V14.01,2013-01-06 22:46:00,
2013-01-06 14:51:00,32.7,24.4,28.23,ESE,112,0.0,0.0,71,0.00,,---,0.00,VWS V14.01,2013-01-06 22:51:00,
2013-01-06 14:56:00,32.2,23.5,28.23,SSE,158,0.0,0.0,70,0.00,,---,0.00,VWS V14.01,2013-01-06 22:56:00,
2013-01-06 15:01:00,32.2,23.9,28.23,WSW,248,0.0,0.0,71,0.00,,---,0.00,VWS V14.01,2013-01-06 23:01:00,
2013-01-06 15:06:00,32.0,24.0,28.23,ENE,68,0.0,0.0,72,0.00,,---,0.00,VWS V14.01,2013-01-06 23:06:00,
2013-01-06 15:11:00,31.6,23.7,28.23,ENE,68,0.0,0.0,72,0.00,,---,0.00,VWS V14.01,2013-01-06 23:11:00,
2013-01-06 15:16:00,31.1,23.1,28.23,East,90,0.0,0.0,72,0.00,,---,0.00,VWS V14.01,2013-01-06 23:16:00,
2013-01-06 15:21:00,30.9,23.3,28.23,East,90,0.0,0.0,73,0.00,,---,0.00,VWS V14.01,2013-01-06 23:21:00,
2013-01-06 15:26:00,30.4,22.8,28.23,East,90,0.0,0.0,73,0.00,,---,0.00,VWS V14.01,2013-01-06 23:26:00,
2013-01-06 15:31:00,30.2,22.9,28.23,ENE,68,0.0,0.0,74,0.00,,---,0.00,VWS V14.01,2013-01-06 23:31:00,
2013-01-06 15:36:00,29.8,22.6,28.23,ENE,68,0.0,0.0,74,0.00,,---,0.00,VWS V14.01,2013-01-06 23:36:00,
2013-01-06 15:41:00,29.7,22.7,28.23,East,90,0.0,0.0,75,0.00,,---,0.00,VWS V14.01,2013-01-06 23:41:00,
2013-01-06 15:46:00,29.3,22.4,28.23,ENE,68,0.0,0.0,75,0.00,,---,0.00,VWS V14.01,2013-01-06 23:46:00,
2013-01-06 15:51:00,29.1,22.2,28.23,East,90,0.0,0.0,75,0.00,,---,0.00,VWS V14.01,2013-01-06 23:51:00,
2013-01-06 15:56:00,28.9,22.3,28.23,East,90,0.0,0.0,76,0.00,,---,0.00,VWS V14.01,2013-01-06 23:56:00,
2013-01-06 16:01:00,28.8,22.2,28.23,ENE,68,0.0,0.0,76,0.00,,---,0.00,VWS V14.01,2013-01-07 00:01:00,
2013-01-06 16:06:00,28.6,22.3,28.23,NNE,22,0.0,0.0,77,0.00,,---,0.00,VWS V14.01,2013-01-07 00:06:00,
2013-01-06 16:11:00,28.2,22.0,28.23,East,90,0.0,0.0,77,0.00,,---,0.00,VWS V14.01,2013-01-07 00:11:00,
2013-01-06 16:16:00,27.9,21.9,28.23,East,90,0.0,0.0,78,0.00,,---,0.00,VWS V14.01,2013-01-07 00:16:00,
2013-01-06 16:21:00,27.9,21.9,28.23,East,90,0.0,0.0,78,0.00,,---,0.00,VWS V14.01,2013-01-07 00:21:00,
2013-01-06 16:26:00,27.5,21.5,28.23,ENE,68,0.0,0.0,78,0.00,,---,0.00,VWS V14.01,2013-01-07 00:26:00,
2013-01-06 16:31:00,27.3,21.7,28.23,South,180,0.0,0.0,79,0.00,,---,0.00,VWS V14.01,2013-01-07 00:31:00,
2013-01-06 16:36:00,27.1,21.5,28.23,South,180,0.0,0.0,79,0.00,,---,0.00,VWS V14.01,2013-01-07 00:36:00,
2013-01-06 16:41:00,27.0,21.3,28.23,South,180,0.0,0.0,79,0.00,,---,0.00,VWS V14.01,2013-01-07 00:41:00,
2013-01-06 16:46:00,27.0,21.6,28.23,South,180,0.0,0.0,80,0.00,,---,0.00,VWS V14.01,2013-01-07 00:46:00,
2013-01-06 16:51:00,26.8,21.5,28.23,South,180,0.0,0.0,80,0.00,,---,0.00,VWS V14.01,2013-01-07 00:51:00,
2013-01-06 16:56:00,26.8,21.5,28.23,South,180,0.0,0.0,80,0.00,,---,0.00,VWS V14.01,2013-01-07 00:56:00,
2013-01-06 17:01:00,26.8,21.7,28.26,ENE,68,0.0,0.0,81,0.00,,---,0.00,VWS V14.01,2013-01-07 01:01:00,
2013-01-06 17:06:00,26.6,21.6,28.26,ESE,112,0.0,0.0,81,0.00,,---,0.00,VWS V14.01,2013-01-07 01:06:00,
2013-01-06 17:11:00,26.6,21.9,28.26,East,90,0.0,0.0,82,0.00,,---,0.00,VWS V14.01,2013-01-07 01:11:00,
2013-01-06 17:16:00,26.6,21.9,28.23,East,90,0.0,0.0,82,0.00,,---,0.00,VWS V14.01,2013-01-07 01:16:00,
2013-01-06 17:21:00,26.6,21.9,28.23,East,90,0.0,0.0,82,0.00,,---,0.00,VWS V14.01,2013-01-07 01:21:00,
2013-01-06 17:26:00,26.6,21.9,28.23,ESE,112,0.0,0.0,82,0.00,,---,0.00,VWS V14.01,2013-01-07 01:26:00,
2013-01-06 17:31:00,26.4,22.0,28.26,ESE,112,0.0,0.0,83,0.00,,---,0.00,VWS V14.01,2013-01-07 01:31:00,
2013-01-06 17:36:00,26.4,22.0,28.26,ESE,112,0.0,0.0,83,0.00,,---,0.00,VWS V14.01,2013-01-07 01:36:00,
2013-01-06 17:41:00,26.4,22.0,28.26,ESE,112,0.0,0.0,83,0.00,,---,0.00,VWS V14.01,2013-01-07 01:41:00,
2013-01-06 17:46:00,26.2,21.8,28.26,ESE,112,0.0,0.0,83,0.00,,---,0.00,VWS V14.01,2013-01-07 01:46:00,
2013-01-06 17:51:00,26.2,21.8,28.26,ESE,112,0.0,0.0,83,0.00,,---,0.00,VWS V14.01,2013-01-07 01:51:00,
2013-01-06 17:56:00,26.2,21.8,28.26,SE,135,0.0,0.0,83,0.00,,---,0.00,VWS V14.01,2013-01-07 01:56:00,
2013-01-06 18:01:00,26.2,21.8,28.23,SE,135,0.0,0.0,83,0.00,,---,0.00,VWS V14.01,2013-01-07 02:01:00,
2013-01-06 18:06:00,26.2,22.1,28.23,SE,135,0.0,0.0,84,0.00,,---,0.00,VWS V14.01,2013-01-07 02:06:00,
2013-01-06 18:11:00,26.2,22.1,28.23,SE,135,0.0,0.0,84,0.00,,---,0.00,VWS V14.01,2013-01-07 02:11:00,
2013-01-06 18:16:00,26.2,22.1,28.23,SE,135,0.0,0.0,84,0.00,,---,0.00,VWS V14.01,2013-01-07 02:16:00,
2013-01-06 18:21:00,26.1,21.9,28.23,SE,135,0.0,0.0,84,0.00,,---,0.00,VWS V14.01,2013-01-07 02:21:00,
2013-01-06 18:26:00,26.1,21.9,28.23,SE,135,0.0,0.0,84,0.00,,---,0.00,VWS V14.01,2013-01-07 02:26:00,
2013-01-06 18:31:00,26.1,21.9,28.23,SE,135,0.0,0.0,84,0.00,,---,0.00,VWS V14.01,2013-01-07 02:31:00,
2013-01-06 18:36:00,26.1,22.2,28.23,SE,135,0.0,0.0,85,0.00,,---,0.00,VWS V14.01,2013-01-07 02:36:00,
2013-01-06 18:41:00,26.1,22.2,28.23,SE,135,0.0,0.0,85,0.00,,---,0.00,VWS V14.01,2013-01-07 02:41:00,
2013-01-06 18:46:00,26.1,22.2,28.23,SE,135,0.0,0.0,85,0.00,,---,0.00,VWS V14.01,2013-01-07 02:46:00,
2013-01-06 18:51:00,26.1,22.2,28.23,SE,135,0.0,0.0,85,0.00,,---,0.00,VWS V14.01,2013-01-07 02:51:00,
2013-01-06 18:56:00,26.1,22.5,28.23,SE,135,0.0,0.0,86,0.00,,---,0.00,VWS V14.01,2013-01-07 02:56:00,
2013-01-06 19:01:00,26.1,22.5,28.23,SE,135,0.0,0.0,86,0.00,,---,0.00,VWS V14.01,2013-01-07 03:01:00,
2013-01-06 19:06:00,26.1,22.5,28.23,SE,135,0.0,0.0,86,0.00,,---,0.00,VWS V14.01,2013-01-07 03:06:00,
2013-01-06 19:11:00,26.1,22.5,28.23,SE,135,0.0,0.0,86,0.00,,---,0.00,VWS V14.01,2013-01-07 03:11:00,
2013-01-06 19:16:00,26.1,22.5,28.23,SE,135,0.0,0.0,86,0.00,,---,0.00,VWS V14.01,2013-01-07 03:16:00,
2013-01-06 19:21:00,26.1,22.5,28.23,SE,135,0.0,0.0,86,0.00,,---,0.00,VWS V14.01,2013-01-07 03:21:00,
2013-01-06 19:26:00,25.9,22.3,28.23,SE,135,0.0,0.0,86,0.00,,---,0.00,VWS V14.01,2013-01-07 03:26:00,
2013-01-06 19:31:00,25.9,22.3,28.26,SE,135,0.0,0.0,86,0.00,,---,0.00,VWS V14.01,2013-01-07 03:31:00,
2013-01-06 19:37:00,25.9,22.3,28.26,SE,135,0.0,0.0,86,0.00,,---,0.00,VWS V14.01,2013-01-07 03:37:00,
2013-01-06 19:42:00,25.9,22.3,28.26,SE,135,0.0,0.0,86,0.00,,---,0.00,VWS V14.01,2013-01-07 03:42:00,
2013-01-06 19:47:00,25.9,22.5,28.26,SE,135,0.0,0.0,87,0.00,,---,0.00,VWS V14.01,2013-01-07 03:47:00,
2013-01-06 19:52:00,25.9,22.5,28.26,SE,135,0.0,0.0,87,0.00,,---,0.00,VWS V14.01,2013-01-07 03:52:00,
2013-01-06 19:57:00,25.9,22.5,28.26,SE,135,0.0,0.0,87,0.00,,---,0.00,VWS V14.01,2013-01-07 03:57:00,
2013-01-06 20:02:00,25.9,22.5,28.26,SE,135,0.0,0.0,87,0.00,,---,0.00,VWS V14.01,2013-01-07 04:02:00,
2013-01-06 20:07:00,25.9,22.5,28.26,SE,135,0.0,0.0,87,0.00,,---,0.00,VWS V14.01,2013-01-07 04:07:00,
2013-01-06 20:12:00,25.9,22.5,28.26,SE,135,0.0,0.0,87,0.00,,---,0.00,VWS V14.01,2013-01-07 04:12:00,
2013-01-06 20:17:00,25.7,22.4,28.23,SE,135,0.0,0.0,87,0.00,,---,0.00,VWS V14.01,2013-01-07 04:17:00,
2013-01-06 20:22:00,25.7,22.4,28.23,SE,135,0.0,0.0,87,0.00,,---,0.00,VWS V14.01,2013-01-07 04:22:00,
2013-01-06 20:27:00,25.7,22.4,28.23,SE,135,0.0,0.0,87,0.00,,---,0.00,VWS V14.01,2013-01-07 04:27:00,
2013-01-06 20:32:00,25.9,22.5,28.23,SE,135,0.0,0.0,87,0.00,,---,0.00,VWS V14.01,2013-01-07 04:32:00,
2013-01-06 20:37:00,25.9,22.5,28.23,SE,135,0.0,0.0,87,0.00,,---,0.00,VWS V14.01,2013-01-07 04:37:00,
2013-01-06 20:42:00,25.9,22.8,28.23,SE,135,0.0,0.0,88,0.00,,---,0.00,VWS V14.01,2013-01-07 04:42:00,
2013-01-06 20:47:00,25.7,22.6,28.23,SE,135,0.0,0.0,88,0.00,,---,0.00,VWS V14.01,2013-01-07 04:47:00,
2013-01-06 20:52:00,25.7,22.6,28.23,SE,135,0.0,0.0,88,0.00,,---,0.00,VWS V14.01,2013-01-07 04:52:00,
2013-01-06 20:57:00,25.7,22.6,28.23,SE,135,0.0,0.0,88,0.00,,---,0.00,VWS V14.01,2013-01-07 04:57:00,
2013-01-06 21:00:00,25.7,22.6,28.23,SE,135,0.0,0.0,88,0.00,,---,0.00,VWS V14.01,2013-01-07 05:00:00,
2013-01-06 21:01:00,25.7,22.6,28.23,SE,135,0.0,0.0,88,0.00,,---,0.00,VWS V14.01,2013-01-07 05:01:00,
2013-01-06 21:06:00,25.7,22.6,28.23,SE,135,0.0,0.0,88,0.00,,---,0.00,VWS V14.01,2013-01-07 05:06:00,
2013-01-06 21:11:00,25.7,22.6,28.23,SE,135,0.0,0.0,88,0.00,,---,0.00,VWS V14.01,2013-01-07 05:11:00,
2013-01-06 21:16:00,25.7,22.6,28.23,SE,135,0.0,0.0,88,0.00,,---,0.00,VWS V14.01,2013-01-07 05:16:00,
2013-01-06 21:21:00,25.7,22.6,28.23,SE,135,0.0,0.0,88,0.00,,---,0.00,VWS V14.01,2013-01-07 05:21:00,
2013-01-06 21:26:00,25.9,22.8,28.23,SE,135,0.0,0.0,88,0.00,,---,0.00,VWS V14.01,2013-01-07 05:26:00,
2013-01-06 21:31:00,25.7,22.6,28.23,SE,135,0.0,0.0,88,0.00,,---,0.00,VWS V14.01,2013-01-07 05:31:00,
2013-01-06 21:36:00,25.7,22.6,28.23,SE,135,0.0,0.0,88,0.00,,---,0.00,VWS V14.01,2013-01-07 05:36:00,
2013-01-06 21:41:00,25.7,22.6,28.23,SE,135,0.0,0.0,88,0.00,,---,0.00,VWS V14.01,2013-01-07 05:41:00,
2013-01-06 21:46:00,25.7,22.6,28.23,East,90,0.0,0.0,88,0.00,,---,0.00,VWS V14.01,2013-01-07 05:46:00,
2013-01-06 21:51:00,25.7,22.6,28.23,ESE,112,0.0,0.0,88,0.00,,---,0.00,VWS V14.01,2013-01-07 05:51:00,
2013-01-06 21:56:00,25.7,22.6,28.23,ESE,112,0.0,0.0,88,0.00,,---,0.00,VWS V14.01,2013-01-07 05:56:00,
2013-01-06 22:01:00,25.7,22.6,28.23,ESE,112,0.0,0.0,88,0.00,,---,0.00,VWS V14.01,2013-01-07 06:01:00,
2013-01-06 22:06:00,25.7,22.6,28.23,ESE,112,0.0,0.0,88,0.00,,---,0.00,VWS V14.01,2013-01-07 06:06:00,
2013-01-06 22:11:00,25.7,22.6,28.23,ESE,112,0.0,0.0,88,0.00,,---,0.00,VWS V14.01,2013-01-07 06:11:00,
2013-01-06 22:16:00,25.7,22.6,28.23,ESE,112,0.0,0.0,88,0.00,,---,0.00,VWS V14.01,2013-01-07 06:16:00,
2013-01-06 22:21:00,25.7,22.6,28.23,ESE,112,0.0,0.0,88,0.00,,---,0.00,VWS V14.01,2013-01-07 06:21:00,
2013-01-06 22:26:00,25.7,22.6,28.23,ESE,112,0.0,0.0,88,0.00,,---,0.00,VWS V14.01,2013-01-07 06:26:00,
2013-01-06 22:31:00,25.7,22.6,28.23,ESE,112,0.0,0.0,88,0.00,,---,0.00,VWS V14.01,2013-01-07 06:31:00,
2013-01-06 22:36:00,25.7,22.6,28.23,ESE,112,0.0,0.0,88,0.00,,---,0.00,VWS V14.01,2013-01-07 06:36:00,
2013-01-06 22:41:00,25.7,22.6,28.23,ESE,112,0.0,0.0,88,0.00,,---,0.00,VWS V14.01,2013-01-07 06:41:00,
2013-01-06 22:46:00,25.5,22.5,28.23,ESE,112,0.0,0.0,88,0.00,,---,0.00,VWS V14.01,2013-01-07 06:46:00,
2013-01-06 22:51:00,25.5,22.5,28.23,ESE,112,0.0,0.0,88,0.00,,---,0.00,VWS V14.01,2013-01-07 06:51:00,
2013-01-06 22:56:00,25.5,22.5,28.23,ESE,112,0.0,0.0,88,0.00,,---,0.00,VWS V14.01,2013-01-07 06:56:00,
2013-01-06 23:01:00,25.5,22.5,28.23,ESE,112,0.0,0.0,88,0.00,,---,0.00,VWS V14.01,2013-01-07 07:01:00,
2013-01-06 23:06:00,25.5,22.5,28.23,ESE,112,0.0,0.0,88,0.00,,---,0.00,VWS V14.01,2013-01-07 07:06:00,
2013-01-06 23:11:00,25.5,22.5,28.23,ESE,112,0.0,0.0,88,0.00,,---,0.00,VWS V14.01,2013-01-07 07:11:00,
2013-01-06 23:16:00,25.5,22.5,28.23,ESE,112,0.0,0.0,88,0.00,,---,0.00,VWS V14.01,2013-01-07 07:16:00,
2013-01-06 23:21:00,25.5,22.5,28.23,ESE,112,0.0,0.0,88,0.00,,---,0.00,VWS V14.01,2013-01-07 07:21:00,
2013-01-06 23:26:00,25.3,22.3,28.23,ESE,112,0.0,0.0,88,0.00,,---,0.00,VWS V14.01,2013-01-07 07:26:00,
2013-01-06 23:31:00,25.3,22.3,28.20,ESE,112,0.0,0.0,88,0.00,,---,0.00,VWS V14.01,2013-01-07 07:31:00,
2013-01-06 23:36:00,25.3,22.3,28.20,ESE,112,0.0,0.0,88,0.00,,---,0.00,VWS V14.01,2013-01-07 07:36:00,
2013-01-06 23:41:00,25.3,22.3,28.20,ESE,112,0.0,0.0,88,0.00,,---,0.00,VWS V14.01,2013-01-07 07:41:00,
2013-01-06 23:46:00,25.3,22.3,28.23,ESE,112,0.0,0.0,88,0.00,,---,0.00,VWS V14.01,2013-01-07 07:46:00,
2013-01-06 23:51:00,25.3,22.6,28.23,ESE,112,0.0,0.0,89,0.00,,---,0.00,VWS V14.01,2013-01-07 07:51:00,
2013-01-06 23:56:00,25.3,22.6,28.23,ESE,112,0.0,0.0,89,0.00,,---,0.00,VWS V14.01,2013-01-07 07:56:00,